Simultaneous Nadir Overpasses (SNOs) Predictions

Prediction of SNOs between LANDSAT-8 and NOAA-19 Satellite Orbit:

Table of predicted SNOs for the next 14.0 days since TLE Epoch: 2/2/2019
Index Date (LANDSAT-8) Time (LANDSAT-8) Lat,Lon (LANDSAT-8) SZA (LANDSAT-8 ) Date (NOAA-19) Time (NOAA-19) Lat,Lon (NOAA-19) SZA (NOAA-19 ) Distance(km) Time Diff (sec)
1 02/02/2019 10:31:44 -78.42,-140.49 84.49 02/02/2019 10:31:09 -78.43,-140.41 84.48 2.16 35
2 02/02/2019 11:21:10 78.41, 27.10 95.49 02/02/2019 11:22:05 78.38, 27.16 95.48 3.29 55
3 02/04/2019 16:05:26 78.46, -43.69 94.91 02/04/2019 16:04:35 78.44, -43.79 94.88 3.11 51
4 02/04/2019 16:54:55 -78.39, 123.59 85.19 02/04/2019 16:55:38 -78.41, 123.69 85.17 2.76 43
5 02/06/2019 21:39:11 -78.45, 52.82 85.79 02/06/2019 21:38:08 -78.46, 52.82 85.80 0.51 63
6 02/06/2019 22:28:37 78.44,-139.60 94.19 02/06/2019 22:29:03 78.40,-139.57 94.16 3.93 26
7 02/09/2019 03:12:47 78.75, 151.00 93.88 02/09/2019 03:11:42 78.79, 147.26 93.74 81.03 65
8 02/09/2019 04:02:22 -78.43, -43.06 86.53 02/09/2019 04:02:37 -78.44, -43.12 86.52 1.53 15
9 02/11/2019 09:36:05 78.44, 53.55 92.77 02/11/2019 09:36:01 78.43, 53.65 92.76 2.48 4
10 02/13/2019 15:09:50 -78.45, 150.14 87.97 02/13/2019 15:09:35 -78.46, 150.21 87.97 1.77 15
11 02/13/2019 15:59:16 78.43, -42.31 92.00 02/13/2019 16:00:29 78.40, -42.15 91.99 4.88 73
12 02/15/2019 20:43:33 78.46,-113.23 91.29 02/15/2019 20:42:59 78.47,-113.16 91.30 1.88 34




NCC Satellite Simultaneous Nadir Overpasses (SNOs) Prediction Service
